Regional Weather Roundup
Issued by NWS

Home | Current Version | Previous Version | Graphics & Text | Print | Product List | Glossary On
Versions: 1 2 3 4 5 6 7 8 9 10 11 12 13 14 15 16 17 18 19 20 21 22 23 24 25 26 27 28
000
ASUS45 KBOI 262210
RWRID

IDAHO REGIONAL WEATHER ROUNDUP
NATIONAL WEATHER SERVICE BOISE ID
300 PM MST SUN FEB 26 2017

NOTE: "FAIR" INDICATES FEW OR NO CLOUDS BELOW 12000 FEET
WITH NO SIGNIFICANT WEATHER AND/OR OBSTRUCTIONS TO VISIBILITY

IDZ012-014-262300-
SOUTHWEST IDAHO


CITY           SKY/WX    TMP DP  RH WIND       PRES   REMARKS
BOISE          CLOUDY    37  19  48 SE16      29.71F WCI  28
CALDWELL       CLOUDY    40  19  43 E12       29.71F WCI  33
MOUNTAIN HOME  CLOUDY    38  19  46 E22       29.70F WCI  27
$$

IDZ016-017-262300-
SOUTHCENTRAL IDAHO


CITY           SKY/WX    TMP DP  RH WIND       PRES   REMARKS
BURLEY         MOSUNNY   38  15  39 SW15      29.71F WCI  29
JEROME           N/A    N/A N/A N/A MISG      29.73F
TWIN FALLS     PTSUNNY   33  17  51 S17       29.72F WCI  22
$$

IDZ019>023-262300-
SOUTHEAST IDAHO


CITY           SKY/WX    TMP DP  RH WIND       PRES   REMARKS
IDAHO FALLS    CLOUDY    28  16  60 SW18      29.76F WCI  15
POCATELLO      MOSUNNY   30  19  63 S22       29.75F WCI  17
REXBURG        CLOUDY    25  14  63 NE3       29.76F
$$

IDZ006-010-011-018-031-032-262300-
CENTRAL IDAHO MOUNTAINS


CITY           SKY/WX    TMP DP  RH WIND       PRES   REMARKS
MCCALL         LGT SNOW  23  19  85 S16       29.58F FOG     WCI  10
HAILEY         FLURRIES  23  16  74 SE3       29.73F
STANLEY          N/A     22   7  52 S9        29.59F WCI  12
SALMON         CLOUDY    30  18  59 S13       29.65F WCI  20
CHALLIS        CLOUDY    26  13  57 S16       29.62F WCI  14
$$

IDZ002-004-006-007-026-262300-
NORTHERN IDAHO


CITY           SKY/WX    TMP DP  RH WIND       PRES   REMARKS
LEWISTON       LGT SNOW  36  29  75 E6        29.68F WCI  31
LOWELL           N/A     35  31  85 CALM      29.72F
COEUR D`ALENE  CLOUDY    31  26  82 CALM      29.66F
MULLAN PASS    LGT SNOW  19  17  92 CALM      29.49F VSB 3/4
$$




USA.gov is the U.S. government's official web portal to all federal, state and local government web resources and services.